EW0395 Weather Reports


Display with metric or nautical units.
time (UTC)temp
F
wind
direction
speed
MPH
gust
MPH
rain 1hr
in
rain 24hr
in
rain mn
in
humidity
%
barometer
mb
20260901171546 60 0 0.0 0.0 0.01 0.38 0.38 97 1018.6
20260901170043 59 0 0.0 0.0 0.01 0.38 0.38 98 1018.5
20260901164545 59 0 0.0 0.0 0.01 0.38 0.38 97 1018.0
20260901163039 58 0 0.0 0.0 0.01 0.38 0.38 97 1018.2
20260901161539 58 0 0.0 0.0 0.00 0.37 0.37 97 1018.8
20260901160041 59 0 0.0 0.0 0.00 0.37 0.37 96 1018.9
20260901154542 59 0 0.0 0.0 0.00 0.37 0.37 96 1018.9
20260901153051 60 0 0.0 0.0 0.00 0.37 0.37 98 1019.1
20260901151542 60 0 0.0 0.0 0.00 0.37 0.37 97 1019.0
20260901150039 60 0 0.0 0.0 0.00 0.37 0.37 96 1018.6
20260901144541 60 0 0.0 0.0 0.00 0.37 0.37 98 1018.4
20260901143042 60 0 0.0 0.0 0.01 0.37 0.37 98 1018.7
20260901141540 60 0 0.0 0.0 0.01 0.37 0.37 98 1018.7
20260901140039 60 0 0.0 0.0 0.04 0.37 0.37 98 1018.5
20260901134550 60 0 0.0 0.0 0.05 0.37 0.37 98 1018.6
20260901133040 59 0 0.0 0.0 0.07 0.36 0.36 98 1018.6
20260901131537 59 0 0.0 0.0 0.13 0.36 0.36 98 1018.7
20260901130038 59 0 0.0 0.0 0.16 0.33 0.33 98 1018.6
20260901124545 59 0 0.0 0.0 0.18 0.32 0.32 98 1018.9
20260901123041 59 0 0.0 0.0 0.17 0.28 0.28 98 1019.0
20260901121543 60 0 0.0 0.0 0.14 0.22 0.22 97 1019.3
20260901120041 60 0 0.0 0.0 0.14 0.17 0.17 98 1019.3
20260901114552 60 0 0.0 0.0 0.14 0.14 0.14 97 1019.4
20260901113040 60 0 0.0 0.0 0.11 0.11 0.11 97 1019.2
20260901111547 60 0 0.0 0.0 0.08 0.08 0.08 97 1019.1
20260901110044 60 0 0.0 0.0 0.03 0.03 0.03 96 1018.9
20260901104542 60 0 0.0 0.0 0.00 0.00 0.00 96 1018.5
20260901103042 60 0 0.0 0.0 0.00 0.00 0.00 96 1018.6
20260901101544 60 0 0.0 0.0 0.00 0.00 0.00 96 1018.3
20260901100045 60 0 0.0 0.0 0.00 0.00 0.00 96 1018.2
20260901094536 60 0 0.0 0.0 0.00 0.00 0.00 96 1018.2
20260901093043 60 0 0.0 0.0 0.00 0.00 0.00 95 1018.4
20260901091549 60 0 0.0 0.0 0.00 0.00 0.00 96 1018.1
20260901090039 60 0 0.0 0.0 0.00 0.00 0.00 95 1018.3
20260901084536 60 0 0.0 0.0 0.00 0.00 0.00 95 1018.2
20260901083036 60 0 0.0 0.0 0.00 0.00 0.00 96 1018.4
20260901081539 60 0 0.0 0.0 0.00 0.00 0.00 96 1018.4
20260901080036 60 0 0.0 0.0 0.00 0.00 0.00 96 1018.5
20260901074536 59 0 0.0 0.0 0.00 0.00 0.00 95 1018.4
20260901073039 60 0 0.0 0.0 0.00 0.00 0.00 96 1018.5
20260901071536 59 0 0.0 0.0 0.00 0.00 0.00 95 1018.6
20260901070040 59 0 0.0 0.0 0.00 0.00 0.00 95 1018.6
20260901064541 59 0 0.0 0.0 0.00 0.00 0.00 96 1018.8
20260901063043 59 0 0.0 0.0 0.00 0.00 0.00 97 1018.7
20260901061538 59 0 0.0 0.0 0.00 0.00 0.00 97 1018.9
20260901060040 59 0 0.0 0.0 0.00 0.00 0.00 97 1019.1
20260901054537 58 0 0.0 0.0 0.00 0.00 0.00 97 1019.1
20260901053035 58 0 0.0 0.0 0.00 0.00 0.00 96 1019.2
20260901051536 58 0 0.0 0.0 0.00 0.00 0.00 96 1019.3
20260901050036 58 0 0.0 0.0 0.00 0.00 0.00 95 1019.4
20260901044537 59 0 0.0 0.0 0.00 0.00 0.00 96 1019.4
20260901043040 59 0 0.0 0.0 0.00 0.00 0.00 95 1019.1
20260901041542 59 0 0.0 0.0 0.00 0.00 0.00 95 1019.1
20260901040052 59 0 0.0 0.0 0.00 0.00 0.00 96 1019.2
20260901034538 58 0 0.0 0.0 0.00 0.00 0.00 95 1019.1
20260901033037 58 0 0.0 0.0 0.00 0.00 0.00 95 1019.4
20260901031539 58 0 0.0 0.0 0.00 0.00 0.00 95 1019.2
20260901030039 59 0 0.0 0.0 0.00 0.00 0.00 95 1019.2
20260901024535 59 0 0.0 0.0 0.00 0.00 0.00 94 1019.3
20260901023039 59 0 0.0 0.0 0.00 0.00 0.00 94 1019.5
20260901021542 59 0 0.0 0.0 0.00 0.00 0.00 93 1019.4
20260901020038 59 0 0.0 0.0 0.00 0.00 0.00 92 1019.4
20260901014541 60 0 0.0 0.0 0.00 0.00 0.00 91 1019.4
20260901013055 60 0 0.0 0.0 0.00 0.00 0.00 90 1019.3
20260901011541 61 0 0.0 0.0 0.00 0.00 0.00 89 1019.3
20260901010041 61 0 0.0 0.0 0.00 0.00 0.00 87 1019.4
20260901004545 62 0 0.0 0.0 0.00 0.00 0.00 86 1019.5
20260901003040 62 0 0.0 0.0 0.00 0.00 0.00 85 1019.4
20260901001538 63 0 0.0 0.0 0.00 0.00 0.00 84 1019.4
20260901000036 64 0 0.0 0.0 0.00 0.00 0.00 82 1019.4
20260831234548 65 0 0.0 0.0 0.00 0.00 0.00 80 1019.5
20260831233041 65 0 0.0 0.0 0.00 0.00 0.00 79 1019.4
20260831231540 66 0 0.0 0.0 0.00 0.00 0.00 77 1019.5
20260831230042 67 0 0.0 0.0 0.00 0.00 0.00 73 1019.7
20260831224542 68 0 0.0 0.0 0.00 0.00 0.00 70 1019.8
20260831223044 69 0 0.0 0.0 0.00 0.00 0.00 69 1019.7
20260831221540 70 0 0.0 0.0 0.00 0.00 0.00 69 1019.6
20260831220045 71 0 0.0 0.0 0.00 0.00 0.00 69 1019.6
20260831214540 71 0 0.0 0.0 0.00 0.00 0.00 68 1019.6
20260831213039 71 0 0.0 0.0 0.00 0.00 0.00 67 1019.5
20260831211542 71 0 0.0 0.0 0.00 0.00 0.00 66 1019.4
20260831210041 72 0 0.0 0.0 0.00 0.00 0.00 65 1019.5
20260831204543 72 0 0.0 0.0 0.00 0.00 0.00 65 1019.7
20260831203103 72 0 0.0 0.0 0.00 0.00 0.00 63 1019.7
20260831201538 74 0 0.0 0.0 0.00 0.00 0.00 57 1019.5
20260831200114 74 0 0.0 0.0 0.00 0.00 0.00 56 1019.8
20260831194540 74 0 0.0 0.0 0.00 0.00 0.00 62 1019.8
20260831193040 75 0 0.0 0.0 0.00 0.00 0.00 56 1019.9
20260831191535 75 0 0.0 0.0 0.00 0.00 0.00 58 1020.0
20260831190041 74 0 0.0 0.0 0.00 0.00 0.00 56 1020.0
20260831184545 75 0 0.0 0.0 0.00 0.00 0.00 54 1020.0
20260831183036 75 0 0.0 0.0 0.00 0.00 0.00 55 1020.2
20260831181542 75 0 0.0 0.0 0.00 0.00 0.00 52 1020.3
20260831180041 75 0 0.0 0.0 0.00 0.00 0.00 48 1020.6
20260831174548 74 0 0.0 0.0 0.00 0.00 0.00 49 1020.7
20260831173038 74 0 0.0 0.0 0.00 0.00 0.00 50 1020.9